Location: *
(35.2348°S, 91.3916°E)
Time: 12:59:26
(UTC+00:00)

Meteor 1-27 - Pass Details

Date: 23 October 2019
Orbit: 838 x 892 km, 81.3° (Epoch: 14 November)

Event Time Altitude Azimuth Distance (km) Brightness Sun altitude
Rises 13:11:23 0° 188° (S) 3,482 7.9 -11.6°
Reaches altitude 10° 13:13:52 10° 187° (S) 2,529 7.1 -12.0°
Maximum altitude 13:19:37 85° 98° (E) 868 4.2 -13.1°
Drops below altitude 10° 13:25:14 10° 9° (N) 2,464 6.3 -14.1°
Enters shadow 13:27:23 - 8° (N) 3,296 7.0 -14.5°
